EWG7WJ EDDL-EKCH

Flight info

Callsign EWG7WJ
Flight time 1h 3m
Altitude 35000
Route MEVEL4H MEVEL Y850 BASUM M170 STADE DCT MEGAR P605 GESKA Z711 MONAK
Aircraft A320/M-SDE3FGHIRWY/LB1

Departure

Time 2026-05-04 18:48
Airport Düsseldorf Airport (EDDL)

Arrival

Time 2026-05-04 19:51
Airport Copenhagen Kastrup Airport (EKCH)
Time Latitude Longitude Altitude Speed Heading
2026-05-04 18:09 51.28446 6.76959 136 ft 0 kts 322°
2026-05-04 18:27 51.28443 6.76962 136 ft 3 kts 322°
2026-05-04 18:27 51.28423 6.76989 135 ft 4 kts 313°
2026-05-04 18:28 51.28407 6.77022 134 ft 4 kts 292°
2026-05-04 18:28 51.28405 6.77058 134 ft 2 kts 233°
2026-05-04 18:28 51.28408 6.77066 134 ft 0 kts 232°
2026-05-04 18:31 51.28398 6.77044 134 ft 4 kts 232°
2026-05-04 18:31 51.28380 6.77007 133 ft 6 kts 232°
2026-05-04 18:31 51.28352 6.76937 133 ft 7 kts 257°
2026-05-04 18:32 51.28368 6.76876 133 ft 5 kts 320°
2026-05-04 18:32 51.28387 6.76853 134 ft 3 kts 322°
2026-05-04 18:32 51.28433 6.76796 136 ft 12 kts 322°
2026-05-04 18:32 51.28495 6.76789 138 ft 10 kts 37°
2026-05-04 18:33 51.28558 6.76918 139 ft 18 kts 53°
2026-05-04 18:33 51.28633 6.77076 142 ft 18 kts 52°
2026-05-04 18:33 51.28714 6.77244 140 ft 20 kts 52°
2026-05-04 18:33 51.28800 6.77427 140 ft 22 kts 52°
2026-05-04 18:34 51.28896 6.77623 141 ft 22 kts 53°
2026-05-04 18:34 51.28987 6.77820 143 ft 22 kts 53°
2026-05-04 18:34 51.29076 6.78008 145 ft 21 kts 53°
2026-05-04 18:34 51.29149 6.78165 146 ft 15 kts 53°
2026-05-04 18:35 51.29214 6.78298 145 ft 16 kts 53°
2026-05-04 18:35 51.29246 6.78365 145 ft 8 kts 52°
2026-05-04 18:35 51.29267 6.78410 145 ft 0 kts 52°
2026-05-04 18:37 51.29270 6.78415 145 ft 3 kts 52°
2026-05-04 18:37 51.29292 6.78460 146 ft 4 kts 52°
2026-05-04 18:37 51.29310 6.78499 147 ft 7 kts 52°
2026-05-04 18:38 51.29344 6.78555 147 ft 6 kts 36°
2026-05-04 18:38 51.29383 6.78574 146 ft 5 kts
2026-05-04 18:38 51.29400 6.78574 147 ft 0 kts 358°
2026-05-04 18:38 51.29415 6.78573 147 ft 6 kts 357°
2026-05-04 18:39 51.29437 6.78570 147 ft 0 kts 354°
2026-05-04 18:41 51.29438 6.78570 147 ft 1 kts 354°
2026-05-04 18:41 51.29468 6.78564 149 ft 4 kts 354°
2026-05-04 18:41 51.29502 6.78558 150 ft 10 kts 353°
2026-05-04 18:42 51.29526 6.78497 150 ft 6 kts 250°
2026-05-04 18:42 51.29511 6.78453 148 ft 7 kts 232°
2026-05-04 18:42 51.29509 6.78450 148 ft 0 kts 232°
2026-05-04 18:47 51.29465 6.78361 148 ft 41 kts 231°
2026-05-04 18:47 51.29146 6.77691 146 ft 109 kts 233°
2026-05-04 18:47 51.28568 6.76491 137 ft 161 kts 231°
2026-05-04 18:47 51.27869 6.74958 565 ft 172 kts 233°
2026-05-04 18:48 51.27213 6.73367 1233 ft 170 kts 236°
2026-05-04 18:48 51.26806 6.71588 1719 ft 180 kts 265°
2026-05-04 18:48 51.27198 6.69640 2059 ft 195 kts 309°
2026-05-04 18:48 51.28364 6.68558 2504 ft 201 kts 352°
2026-05-04 18:49 51.29733 6.68865 2939 ft 205 kts 18°
2026-05-04 18:49 51.31190 6.69365 3084 ft 224 kts
2026-05-04 18:49 51.32820 6.69488 3204 ft 247 kts
2026-05-04 18:49 51.34616 6.69519 3422 ft 265 kts
2026-05-04 18:50 51.36481 6.69561 3902 ft 270 kts
2026-05-04 18:50 51.38370 6.69645 4441 ft 273 kts
2026-05-04 18:50 51.40281 6.69698 4962 ft 276 kts 359°
2026-05-04 18:50 51.42209 6.69682 5473 ft 278 kts 359°
2026-05-04 18:51 51.44150 6.69651 6004 ft 280 kts 359°
2026-05-04 18:51 51.46093 6.69625 6510 ft 282 kts 359°
2026-05-04 18:51 51.48053 6.69608 6995 ft 284 kts 359°
2026-05-04 18:51 51.50042 6.69601 7483 ft 285 kts 360°
2026-05-04 18:52 51.52025 6.69602 7982 ft 286 kts
2026-05-04 18:52 51.54026 6.69606 8459 ft 288 kts
2026-05-04 18:52 51.56030 6.69608 8924 ft 289 kts
2026-05-04 18:52 51.58050 6.69636 9386 ft 291 kts
2026-05-04 18:53 51.60037 6.70194 9831 ft 292 kts 18°
2026-05-04 18:53 51.61921 6.71472 10080 ft 299 kts 31°
2026-05-04 18:53 51.63623 6.73497 10215 ft 315 kts 44°
2026-05-04 18:53 51.65068 6.76284 10571 ft 331 kts 55°
2026-05-04 18:54 51.66440 6.79310 11241 ft 337 kts 54°
2026-05-04 18:54 51.67842 6.82365 11949 ft 342 kts 54°
2026-05-04 18:54 51.69250 6.85417 12664 ft 346 kts 54°
2026-05-04 18:54 51.70692 6.88536 13377 ft 350 kts 54°
2026-05-04 18:55 51.72158 6.91711 14030 ft 354 kts 54°
2026-05-04 18:55 51.75128 6.98163 15233 ft 362 kts 54°
2026-05-04 18:55 51.76631 7.01454 15842 ft 366 kts 54°
2026-05-04 18:56 51.78149 7.04792 16448 ft 371 kts 54°
2026-05-04 18:56 51.79678 7.08162 17047 ft 375 kts 55°
2026-05-04 18:56 51.81231 7.11584 17634 ft 379 kts 55°
2026-05-04 18:56 51.82796 7.15038 18204 ft 383 kts 55°
2026-05-04 18:57 51.84380 7.18534 18705 ft 388 kts 55°
2026-05-04 18:57 51.86068 7.21961 19188 ft 393 kts 48°
2026-05-04 18:57 51.87975 7.25164 19673 ft 397 kts 47°
2026-05-04 18:57 51.89903 7.28394 20149 ft 401 kts 47°
2026-05-04 18:58 51.91846 7.31663 20625 ft 405 kts 47°
2026-05-04 18:58 51.93799 7.34962 21094 ft 408 kts 47°
2026-05-04 18:58 51.95771 7.38307 21565 ft 412 kts 47°
2026-05-04 18:58 51.97759 7.41689 22017 ft 416 kts 47°
2026-05-04 18:59 51.99795 7.45060 22478 ft 420 kts 45°
2026-05-04 18:59 52.01894 7.48385 22929 ft 424 kts 44°
2026-05-04 18:59 52.04038 7.51695 23367 ft 427 kts 44°
2026-05-04 18:59 52.06210 7.55022 23754 ft 431 kts 44°
2026-05-04 19:00 52.08397 7.58384 24107 ft 435 kts 44°
2026-05-04 19:00 52.10597 7.61793 24476 ft 438 kts 44°
2026-05-04 19:00 52.12802 7.65243 24833 ft 441 kts 44°
2026-05-04 19:00 52.15015 7.68735 25180 ft 444 kts 44°
2026-05-04 19:01 52.17233 7.72250 25530 ft 447 kts 44°
2026-05-04 19:01 52.19461 7.75788 25896 ft 450 kts 44°
2026-05-04 19:01 52.21714 7.79361 26236 ft 452 kts 44°
2026-05-04 19:01 52.23982 7.82954 26592 ft 455 kts 44°
2026-05-04 19:02 52.26252 7.86554 26937 ft 458 kts 44°
2026-05-04 19:02 52.28545 7.90193 27278 ft 461 kts 44°
2026-05-04 19:02 52.30820 7.93806 27594 ft 463 kts 44°
2026-05-04 19:02 52.33139 7.97499 27923 ft 466 kts 44°
2026-05-04 19:03 52.35467 8.01221 28234 ft 470 kts 44°
2026-05-04 19:03 52.37831 8.05011 28557 ft 473 kts 44°
2026-05-04 19:03 52.40193 8.08803 28882 ft 475 kts 44°
2026-05-04 19:03 52.42531 8.12560 29191 ft 478 kts 44°
2026-05-04 19:04 52.44912 8.16386 29492 ft 481 kts 44°
2026-05-04 19:04 52.47334 8.20284 29792 ft 484 kts 44°
2026-05-04 19:04 52.49707 8.24105 30064 ft 486 kts 44°
2026-05-04 19:04 52.52129 8.28010 30287 ft 489 kts 44°
2026-05-04 19:05 52.54561 8.31939 30533 ft 491 kts 44°
2026-05-04 19:05 52.57007 8.35900 30768 ft 494 kts 44°
2026-05-04 19:05 52.59449 8.39865 31003 ft 496 kts 44°
2026-05-04 19:05 52.61908 8.43863 31244 ft 498 kts 44°
2026-05-04 19:06 52.64373 8.47875 31576 ft 497 kts 44°
2026-05-04 19:06 52.66824 8.51872 31934 ft 497 kts 44°
2026-05-04 19:06 52.69279 8.55879 32263 ft 496 kts 44°
2026-05-04 19:06 52.71730 8.59890 32611 ft 496 kts 44°
2026-05-04 19:07 52.74176 8.63902 32896 ft 496 kts 44°
2026-05-04 19:07 52.76620 8.67922 32986 ft 496 kts 44°
2026-05-04 19:07 52.81496 8.75951 32988 ft 495 kts 43°
2026-05-04 19:08 52.86431 8.84079 32993 ft 506 kts 43°
2026-05-04 19:08 52.91241 8.92047 32996 ft 508 kts 44°
2026-05-04 19:09 52.96227 9.00359 32997 ft 509 kts 43°
2026-05-04 19:09 52.98704 9.04494 33418 ft 502 kts 43°
2026-05-04 19:09 53.01150 9.08575 33997 ft 496 kts 43°
2026-05-04 19:10 53.03583 9.12635 34377 ft 493 kts 43°
2026-05-04 19:10 53.05993 9.16666 34725 ft 491 kts 43°
2026-05-04 19:10 53.08394 9.20697 34932 ft 490 kts 43°
2026-05-04 19:10 53.10769 9.24695 34980 ft 485 kts 43°
2026-05-04 19:11 53.15505 9.32674 34975 ft 481 kts 43°
2026-05-04 19:11 53.20209 9.40625 34977 ft 487 kts 43°
2026-05-04 19:12 53.27444 9.52930 34980 ft 499 kts 43°
2026-05-04 19:13 53.32301 9.61218 34988 ft 499 kts 43°
2026-05-04 19:13 53.37152 9.69503 34992 ft 498 kts 43°
2026-05-04 19:14 53.41997 9.77819 35000 ft 498 kts 43°
2026-05-04 19:14 53.46827 9.86145 35008 ft 498 kts 43°
2026-05-04 19:15 53.51610 9.94426 35010 ft 497 kts 43°
2026-05-04 19:15 53.56414 10.02768 35011 ft 497 kts 43°
2026-05-04 19:16 53.61220 10.11122 35013 ft 496 kts 43°
2026-05-04 19:16 53.66000 10.19481 35009 ft 495 kts 43°
2026-05-04 19:16 53.68390 10.23676 34863 ft 495 kts 43°
2026-05-04 19:17 53.70761 10.27842 34641 ft 495 kts 43°
2026-05-04 19:17 53.73163 10.32058 34420 ft 496 kts 43°
2026-05-04 19:17 53.75560 10.36269 34197 ft 496 kts 43°
2026-05-04 19:17 53.77948 10.40475 33976 ft 497 kts 43°
2026-05-04 19:18 53.80338 10.44695 33712 ft 498 kts 43°
2026-05-04 19:18 53.82735 10.48935 33379 ft 499 kts 43°
2026-05-04 19:18 53.85131 10.53186 33054 ft 500 kts 43°
2026-05-04 19:18 53.87533 10.57466 32735 ft 502 kts 43°
2026-05-04 19:19 53.89938 10.61757 32428 ft 503 kts 43°
2026-05-04 19:19 53.92355 10.66070 32105 ft 505 kts 43°
2026-05-04 19:19 53.94776 10.70396 31794 ft 507 kts 43°
2026-05-04 19:19 53.97203 10.74742 31486 ft 509 kts 44°
2026-05-04 19:20 53.99646 10.79125 31182 ft 510 kts 44°
2026-05-04 19:20 54.02094 10.83518 30880 ft 512 kts 44°
2026-05-04 19:20 54.04544 10.87917 30585 ft 514 kts 44°
2026-05-04 19:20 54.07003 10.92343 30297 ft 514 kts 44°
2026-05-04 19:21 54.09449 10.96755 29994 ft 514 kts 44°
2026-05-04 19:21 54.11897 11.01182 29657 ft 512 kts 44°
2026-05-04 19:21 54.14335 11.05609 29310 ft 510 kts 44°
2026-05-04 19:21 54.16746 11.09999 28781 ft 504 kts 44°
2026-05-04 19:22 54.19126 11.14338 28117 ft 499 kts 44°
2026-05-04 19:22 54.21486 11.18644 27470 ft 493 kts 44°
2026-05-04 19:22 54.23814 11.22896 26855 ft 488 kts 44°
2026-05-04 19:22 54.26123 11.27120 26250 ft 483 kts 43°
2026-05-04 19:23 54.28403 11.31298 25643 ft 479 kts 43°
2026-05-04 19:23 54.30663 11.35445 25086 ft 474 kts 43°
2026-05-04 19:23 54.32899 11.39559 24515 ft 469 kts 43°
2026-05-04 19:23 54.35265 11.43336 23960 ft 459 kts 33°
2026-05-04 19:24 54.37766 11.46681 23384 ft 455 kts 33°
2026-05-04 19:24 54.40246 11.50013 22771 ft 450 kts 33°
2026-05-04 19:24 54.42688 11.53316 22229 ft 445 kts 34°
2026-05-04 19:24 54.45100 11.56589 21782 ft 437 kts 34°
2026-05-04 19:25 54.47468 11.59803 21346 ft 430 kts 34°
2026-05-04 19:25 54.49802 11.62969 20935 ft 423 kts 34°
2026-05-04 19:25 54.52090 11.66076 20526 ft 417 kts 34°
2026-05-04 19:25 54.54348 11.69146 20149 ft 410 kts 34°
2026-05-04 19:26 54.56566 11.72166 19807 ft 403 kts 34°
2026-05-04 19:26 54.58754 11.75149 19464 ft 397 kts 34°
2026-05-04 19:26 54.60885 11.78058 19127 ft 391 kts 35°
2026-05-04 19:26 54.63013 11.80961 18793 ft 386 kts 35°
2026-05-04 19:27 54.65115 11.83835 18458 ft 381 kts 35°
2026-05-04 19:27 54.67176 11.86658 18111 ft 376 kts 35°
2026-05-04 19:27 54.69192 11.89431 17940 ft 365 kts 35°
2026-05-04 19:27 54.71150 11.92132 17809 ft 355 kts 35°
2026-05-04 19:28 54.73055 11.94759 17593 ft 347 kts 35°
2026-05-04 19:28 54.74937 11.97347 17266 ft 344 kts 35°
2026-05-04 19:28 54.76807 11.99917 16914 ft 342 kts 35°
2026-05-04 19:28 54.78656 12.02471 16569 ft 340 kts 35°
2026-05-04 19:29 54.80499 12.05022 16227 ft 338 kts 35°
2026-05-04 19:29 54.81719 12.06709 16005 ft 337 kts 35°
2026-05-04 19:29 54.83548 12.09238 15677 ft 335 kts 35°
2026-05-04 19:29 54.85368 12.11762 15343 ft 334 kts 35°
2026-05-04 19:30 54.87173 12.14272 15029 ft 332 kts 35°
2026-05-04 19:30 54.88961 12.16764 14706 ft 331 kts 35°
2026-05-04 19:30 54.90751 12.19257 14403 ft 330 kts 35°
2026-05-04 19:30 54.92531 12.21740 14096 ft 328 kts 35°
2026-05-04 19:31 54.94308 12.24224 13794 ft 326 kts 35°
2026-05-04 19:31 54.96072 12.26689 13473 ft 325 kts 35°
2026-05-04 19:31 54.97831 12.29148 13129 ft 323 kts 35°
2026-05-04 19:31 54.99574 12.31592 12798 ft 321 kts 35°
2026-05-04 19:32 55.01307 12.34024 12471 ft 319 kts 35°
2026-05-04 19:32 55.03037 12.36451 12133 ft 317 kts 35°
2026-05-04 19:32 55.04749 12.38854 11814 ft 315 kts 35°
2026-05-04 19:32 55.06455 12.41249 11483 ft 313 kts 35°
2026-05-04 19:33 55.08146 12.43624 11152 ft 312 kts 35°
2026-05-04 19:33 55.09828 12.45989 10819 ft 310 kts 35°
2026-05-04 19:33 55.11499 12.48347 10516 ft 308 kts 35°
2026-05-04 19:33 55.13158 12.50690 10190 ft 306 kts 36°
2026-05-04 19:34 55.14808 12.53030 9873 ft 304 kts 36°
2026-05-04 19:34 55.16439 12.55346 9527 ft 302 kts 36°
2026-05-04 19:34 55.18162 12.57358 9163 ft 294 kts 20°
2026-05-04 19:34 55.20038 12.58737 8777 ft 292 kts 18°
2026-05-04 19:35 55.21911 12.60099 8420 ft 290 kts 18°
2026-05-04 19:35 55.23772 12.61455 8195 ft 289 kts 18°
2026-05-04 19:35 55.25626 12.62807 7965 ft 289 kts 19°
2026-05-04 19:35 55.27474 12.64154 7743 ft 288 kts 19°
2026-05-04 19:36 55.29318 12.65501 7518 ft 286 kts 19°
2026-05-04 19:36 55.31156 12.66844 7285 ft 285 kts 19°
2026-05-04 19:36 55.32986 12.68184 7081 ft 285 kts 19°
2026-05-04 19:36 55.34813 12.69526 6849 ft 283 kts 19°
2026-05-04 19:37 55.36629 12.70859 6631 ft 283 kts 19°
2026-05-04 19:37 55.38440 12.72188 6415 ft 282 kts 19°
2026-05-04 19:37 55.40240 12.73510 6188 ft 280 kts 19°
2026-05-04 19:37 55.42039 12.74835 5959 ft 279 kts 19°
2026-05-04 19:38 55.43823 12.76153 5723 ft 278 kts 19°
2026-05-04 19:38 55.45606 12.77470 5496 ft 277 kts 19°
2026-05-04 19:38 55.47378 12.78771 5269 ft 275 kts 18°
2026-05-04 19:38 55.49166 12.79923 5039 ft 273 kts 15°
2026-05-04 19:39 55.50968 12.80967 4804 ft 272 kts 14°
2026-05-04 19:39 55.52762 12.81964 4546 ft 270 kts 14°
2026-05-04 19:39 55.54552 12.82955 4285 ft 268 kts 14°
2026-05-04 19:39 55.56320 12.83972 4068 ft 267 kts 17°
2026-05-04 19:40 55.58054 12.85134 4002 ft 266 kts 19°
2026-05-04 19:40 55.59771 12.86371 4003 ft 267 kts 19°
2026-05-04 19:40 55.61486 12.87630 4005 ft 267 kts 20°
2026-05-04 19:40 55.63108 12.89214 4002 ft 266 kts 33°
2026-05-04 19:41 55.64468 12.91290 4000 ft 249 kts 39°
2026-05-04 19:41 55.65732 12.93293 4002 ft 241 kts 38°
2026-05-04 19:41 55.66990 12.95244 4001 ft 240 kts 38°
2026-05-04 19:41 55.68254 12.97178 4000 ft 240 kts 37°
2026-05-04 19:42 55.69518 12.99106 3997 ft 240 kts 37°
2026-05-04 19:42 55.70785 13.01038 3997 ft 240 kts 37°
2026-05-04 19:42 55.72042 13.02959 3741 ft 238 kts 38°
2026-05-04 19:42 55.73296 13.04871 3428 ft 237 kts 38°
2026-05-04 19:43 55.74546 13.06769 3130 ft 235 kts 37°
2026-05-04 19:43 55.75795 13.08587 2986 ft 231 kts 29°
2026-05-04 19:43 55.77282 13.09379 2980 ft 223 kts 355°
2026-05-04 19:43 55.78725 13.08579 2988 ft 217 kts 321°
2026-05-04 19:44 55.79623 13.06507 2991 ft 214 kts 287°
2026-05-04 19:44 55.79771 13.03885 2991 ft 215 kts 268°
2026-05-04 19:44 55.79665 13.01226 2992 ft 216 kts 266°
2026-05-04 19:44 55.79525 12.98566 2991 ft 216 kts 265°
2026-05-04 19:45 55.79383 12.95931 2993 ft 217 kts 265°
2026-05-04 19:45 55.79235 12.93293 2990 ft 205 kts 265°
2026-05-04 19:45 55.79095 12.90851 2987 ft 192 kts 265°
2026-05-04 19:45 55.78953 12.88581 3017 ft 180 kts 264°
2026-05-04 19:46 55.78636 12.86466 2996 ft 180 kts 239°
2026-05-04 19:46 55.77629 12.85167 2997 ft 187 kts 196°
2026-05-04 19:46 55.76338 12.84829 2996 ft 188 kts 194°
2026-05-04 19:46 55.75048 12.84377 2999 ft 189 kts 195°
2026-05-04 19:47 55.73827 12.83684 2918 ft 186 kts 211°
2026-05-04 19:47 55.72734 12.82440 2719 ft 183 kts 221°
2026-05-04 19:47 55.71754 12.81042 2489 ft 182 kts 224°
2026-05-04 19:47 55.70780 12.79561 2236 ft 182 kts 225°
2026-05-04 19:48 55.69842 12.78110 2007 ft 180 kts 225°
2026-05-04 19:48 55.68919 12.76676 1761 ft 173 kts 225°
2026-05-04 19:48 55.68042 12.75314 1531 ft 161 kts 225°
2026-05-04 19:48 55.67219 12.74033 1317 ft 152 kts 225°
2026-05-04 19:49 55.66439 12.72818 1106 ft 148 kts 225°
2026-05-04 19:49 55.65682 12.71642 884 ft 143 kts 224°
2026-05-04 19:49 55.64945 12.70503 693 ft 139 kts 224°
2026-05-04 19:49 55.64238 12.69364 485 ft 138 kts 225°
2026-05-04 19:50 55.63513 12.68249 311 ft 138 kts 223°
2026-05-04 19:50 55.62793 12.67134 132 ft 138 kts 224°
2026-05-04 19:50 55.62087 12.66040 18 ft 125 kts 223°
2026-05-04 19:50 55.61558 12.65227 17 ft 63 kts 221°
2026-05-04 19:51 55.61361 12.64913 21 ft 29 kts 223°
2026-05-04 19:51 55.61259 12.64635 20 ft 24 kts 249°
2026-05-04 19:51 55.61211 12.64390 18 ft 3 kts 251°
2026-05-04 19:51 55.61206 12.64362 21 ft 2 kts 251°
2026-05-04 19:52 55.61201 12.64337 18 ft 2 kts 251°
2026-05-04 19:52 55.61195 12.64308 17 ft 3 kts 251°
2026-05-04 19:52 55.61187 12.64249 16 ft 8 kts 260°
2026-05-04 19:52 55.61203 12.64140 17 ft 10 kts 314°
2026-05-04 19:53 55.61247 12.64103 18 ft 6 kts 351°
2026-05-04 19:53 55.61300 12.64138 19 ft 10 kts 31°
2026-05-04 19:53 55.61351 12.64193 20 ft 8 kts 34°
2026-05-04 19:53 55.61420 12.64274 21 ft 13 kts 33°
2026-05-04 19:54 55.61481 12.64344 23 ft 9 kts 33°
2026-05-04 19:54 55.61540 12.64412 23 ft 12 kts 33°
2026-05-04 19:54 55.61610 12.64492 23 ft 13 kts 33°
2026-05-04 19:54 55.61683 12.64570 25 ft 13 kts 19°
2026-05-04 19:55 55.61772 12.64550 22 ft 13 kts 349°
2026-05-04 19:55 55.61830 12.64530 25 ft 0 kts 349°
2026-05-04 19:56 55.61837 12.64527 24 ft 5 kts 349°
2026-05-04 19:57 55.61894 12.64507 22 ft 11 kts 348°
2026-05-04 19:57 55.61990 12.64474 21 ft 16 kts 349°
2026-05-04 19:57 55.62102 12.64437 19 ft 18 kts 349°
2026-05-04 19:57 55.62226 12.64400 18 ft 17 kts 339°
2026-05-04 19:58 55.62298 12.64240 16 ft 18 kts 307°
2026-05-04 19:58 55.62365 12.64055 17 ft 17 kts 302°
2026-05-04 19:58 55.62429 12.63884 18 ft 17 kts 306°
2026-05-04 19:58 55.62517 12.63775 22 ft 14 kts 342°
2026-05-04 19:59 55.62590 12.63775 23 ft 5 kts 11°
2026-05-04 19:59 55.62592 12.63776 23 ft 0 kts 11°
2026-05-04 20:00 55.62597 12.63778 23 ft 3 kts 12°
2026-05-04 20:00 55.62632 12.63797 23 ft 8 kts 23°
2026-05-04 20:00 55.62691 12.63859 25 ft 11 kts 33°
2026-05-04 20:01 55.62752 12.63930 25 ft 10 kts 31°
2026-05-04 20:01 55.62808 12.63998 24 ft 10 kts 45°
2026-05-04 20:01 55.62803 12.64101 24 ft 8 kts 123°
2026-05-04 20:01 55.62782 12.64160 22 ft 3 kts 121°
2026-05-04 20:02 55.62780 12.64166 22 ft 0 kts 122°
2026-05-04 20:05 55.62780 12.64167 22 ft 0 kts 122°